Regional Weather Roundup
Issued by NWS Cleveland, OH

Home | Current Version | Previous Version | Graphics & Text | Print | Product List | Glossary Off
Versions: 1 2 3 4 5 6 7 8 9 10 11 12 13 14 15 16 17 18 19 20 21 22 23 24 25 26 27 28 29 30 31 32 33 34 35 36 37 38 39 40 41 42 43 44 45 46 47 48 49 50

000
ASUS41 KCLE 221410
RWRCLE
OHIO REGIONAL WEATHER ROUNDUP
NATIONAL WEATHER SERVICE CLEVELAND, OH
1000 AM EDT MON SEP 22 2014

NOTE: "FAIR" INDICATES FEW OR NO CLOUDS BELOW 12,000 FEET WITH NO
SIGNIFICANT WEATHER AND/OR OBSTRUCTIONS TO VISIBILITY.

OHZ001>008-015>018-024>027-034-035-043-044-221500-
   NORTHWEST OHIO

CITY           SKY/WX    TMP DP  RH WIND       PRES   REMARKS
DEFIANCE       MOSUNNY  N/A N/A N/A N8        30.23R
FINDLAY        CLOUDY    50  37  61 NW9       30.21R
TOLEDO EXPRESS CLOUDY    50  37  61 N12       30.22R
TOLEDO EXEC    CLOUDY    50  37  61 N9        30.22R
LIMA           CLOUDY    49  39  68 N8        30.23R
$$

OHZ009>014-019>023-028>033-038-089-221500-
   NORTHEAST OHIO

CITY           SKY/WX    TMP DP  RH WIND       PRES   REMARKS
CLE-HOPKINS    CLOUDY    53  40  61 NW10      30.17R
CLE-LAKEFRONT  CLOUDY    54  41  61 NW14      30.14R
CUY CO. ARPT   CLOUDY    54  43  66 N14       30.14R
LORAIN-ELYRIA  CLOUDY    55  41  59 N8        30.17R
ASHTABULA      CLOUDY    52  44  74 NW9       30.12R
AKRON-CANTON   CLOUDY    54  41  61 NW10      30.14R
WOOSTER        CLOUDY    53  44  71 NW10      30.17R
MANSFIELD      CLOUDY    50  40  68 W7        30.18R
YOUNGSTOWN     CLOUDY    52  44  74 W8        30.11R
$$

OHZ042-051>053-060>062-070>072-077>081-221500-
  SOUTHWEST OHIO

CITY           SKY/WX    TMP DP  RH WIND       PRES   REMARKS
CINC-COVINGTON MOSUNNY   52  42  69 N8        30.22R
CINC-LUNKEN    PTSUNNY   53  43  68 N5        30.23R
HAMILTON       CLOUDY    51  44  77 N6        30.24R
DAYTON         CLOUDY    50  40  68 NE10      30.23R
WRIGHT-PAT AFB CLOUDY    50  39  65 N10       30.22R
DAYTON GENERAL CLOUDY    50  42  74 N7        30.22R
WILMINGTON     CLOUDY    51  44  77 N8        30.20R
$$

OHZ036-037-039>041-045>050-054>059-063>069-073>076-082>088-221500-
  CENTRAL AND SOUTHEAST OHIO

CITY           SKY/WX    TMP DP  RH WIND       PRES   REMARKS
COLUMBUS       CLOUDY    53  39  59 N8        30.20R
OSU AIRPORT    CLOUDY    51  39  63 N9        30.20R
BOLTON FIELD   CLOUDY    50  39  66 NW7       30.21R
RICKENBACK AFB CLOUDY    52  40  64 NW9       30.20R
NEWARK         CLOUDY    52  43  71 NW8       30.19R
MARION         CLOUDY    50  38  63 N10       30.21R
LANCASTER      MOSUNNY   55  44  66 NW7       30.19R
ZANESVILLE     CLOUDY    53  46  77 NW7       30.17R
NEW PHILLY     PTSUNNY   56  43  61 W10       30.16R
$$



USA.gov is the U.S. government's official web portal to all federal, state and local government web resources and services.